Home   Weather   Chico   Past weeks

Flag for USA Past Weather in Chico, California, USA — Yesterday and Last 2 Weeks

Now
45 °F

Clear.


Feels Like: 41 °F
Forecast: 43 / 62 °F
Wind: 6 mph from Northeast

Location: Chico Municipal

Current Time: Dec 2, 2016 at 10:51:00 pm

Latest Report: Dec 2, 2016 at 10:15 pm


Visibility: 10 mi

Pressure: 30.25 "Hg

Humidity: 49%

Dew Point: 27 °F

Location of ChicoLocation

Past Weather in Chico — Graph

°F

Chico Temperature Yesterday

Maximum temperature yesterday: 57 °F (at 1:47 pm)
Minimum temperature yesterday: 37 °F (at 6:50 am)
Average temperature yesterday: 44 °F

High & Low Weather Summary for the Past Weeks

 TemperatureHumidityPressure
High59 °F (Nov 18, 12:47 pm)100% (Nov 19, 4:47 pm)30.39 "Hg (Nov 19, 4:47 pm)
Low34 °F (Nov 24, 6:47 am)36% (Nov 19, 2:15 am)29.77 "Hg (Nov 26, 4:50 pm)
Average47 °F82%30.09 "Hg
* Reported Nov 17 9:15 pm — Dec 2 9:35 pm, Chico, Weather by CustomWeather, © 2016

Note: Actual official high and low records may vary slightly from our data, if they occured in-between our weather recording intervals... More about our weather records

Advertising

Chico Weather History for the Previous 24 Hours

Scroll right to see more
 ConditionsComfort  
Time TempWeatherWind HumidityBarometerVisibility
9:35 pm
Fri, Dec 2
43 °FClear.No wind61%30.25 "Hg10 mi
9:15 pm43 °FClear.No wind61%30.25 "Hg7 mi
8:55 pm45 °FClear.No wind53%30.25 "Hg10 mi
8:35 pm45 °FClear.No wind57%30.25 "Hg10 mi
8:15 pm45 °FClear.No wind53%30.25 "Hg10 mi
7:55 pm45 °FClear.No wind66%30.25 "Hg10 mi
7:15 pm45 °FClear.No wind66%30.26 "Hg10 mi
6:55 pm45 °FClear.3 mph71%30.26 "Hg10 mi
6:15 pm48 °FClear.5 mph58%30.25 "Hg10 mi
5:55 pm50 °FClear.6 mph50%30.25 "Hg10 mi
4:50 pm52 °FPassing clouds.9 mph47%30.25 "Hg10 mi
3:53 pm55 °FScattered clouds.8 mph41%30.26 "Hg80 mi
2:47 pm57 °FScattered clouds.12 mph36%30.26 "Hg80 mi
12:49 pm55 °FScattered clouds.14 mph36%30.29 "Hg80 mi
11:49 am55 °FScattered clouds.16 mph38%30.31 "Hg80 mi
10:47 am52 °FScattered clouds.12 mph44%30.33 "Hg80 mi
9:47 am48 °FScattered clouds.12 mph50%30.34 "Hg80 mi
8:47 am43 °FScattered clouds.12 mph57%30.33 "Hg80 mi
7:47 am37 °FPassing clouds.12 mph70%30.32 "Hg80 mi
6:50 am37 °FPassing clouds.12 mph70%30.31 "Hg10 mi
5:35 am36 °FClear.No wind70%30.28 "Hg10 mi
5:15 am37 °FClear.3 mph60%30.28 "Hg10 mi
4:55 am36 °FClear.No wind70%30.28 "Hg10 mi
4:35 am36 °FClear.No wind70%30.27 "Hg10 mi
4:15 am36 °FClear.No wind70%30.27 "Hg10 mi
3:55 am36 °FClear.No wind70%30.26 "Hg10 mi
3:35 am36 °FClear.No wind70%30.26 "Hg10 mi
3:15 am37 °FClear.No wind65%30.26 "Hg10 mi
2:55 am37 °FClear.3 mph65%30.26 "Hg10 mi
2:35 am37 °FClear.No wind65%30.26 "Hg10 mi
2:15 am41 °FClear.9 mph57%30.26 "Hg10 mi
1:55 am43 °FClear.13 mph53%30.26 "Hg10 mi
1:35 am43 °FClear.3 mph53%30.26 "Hg10 mi
1:15 am43 °FClear.No wind53%30.26 "Hg10 mi
12:55 am41 °FClear.14 mph61%30.26 "Hg10 mi
12:15 am43 °FClear.18 mph57%30.26 "Hg10 mi
11:55 pm
Thu, Dec 1
41 °FClear.15 mph61%30.26 "Hg10 mi
11:15 pm45 °FClear.10 mph53%30.26 "Hg10 mi
10:55 pm43 °FClear.5 mph57%30.27 "Hg10 mi
10:35 pm45 °FClear.9 mph53%30.26 "Hg10 mi
10:15 pm45 °FClear.15 mph49%30.25 "Hg10 mi
Weather by CustomWeather, © 2016

See weather overviewHow to use our weather pages